Location: St. Louis
(38.6270°N, 90.1994°W)
Time: 17:48:14
(UTC-06:00)

X-37B - Pass Details

Date: 05 December 2022
Orbit: 277 x 277 km, 45.0° (Epoch: 01 November)

Event Time Altitude Azimuth Distance (km) Brightness Sun altitude
Rises 17:26:31 0° 198° (SSW) 1,898 4.7 -9.2°
Reaches altitude 10° 17:29:27 10° 157° (SSE) 1,092 2.9 -9.7°
Maximum altitude 17:30:10 11° 140° (SE) 1,048 2.6 -9.8°
Drops below altitude 10° 17:30:53 10° 123° (ESE) 1,094 2.5 -10.0°
Enters shadow 17:31:11 - 117° (ESE) 1,137 2.6 -10.0°
